Flag for Germany Weather past 2 weeks in Kaiserslautern, Rhineland-Palatinate, Germany

Now
35 °F

Clear.


Feels Like: 28 °F
Forecast: 34 / 43 °F
Wind: 9 mph from Southwest

Location: Ramstein

Current Time: Mar 3, 2015 at 4:56:30 AM

Latest Report: Mar 3, 2015 at 3:58 AM


Visibility: N/A

Pressure: 30.17 "Hg

Humidity: 74%

Dew point: 28 °F

Location of KaiserslauternLocation

Historic Weather in Kaiserslautern — Graph

°F

Kaiserslautern temperature yesterday

Maximum temperature yesterday: 49 °F (at 12:58 PM)
Minimum temperature yesterday: 37 °F (at 10:58 PM)
Average temperature yesterday: 44 °F

Past Weeks' High & Low Weather Summary

 TemperatureHumidityPressure
High54 °F (Feb 20, 3:58 PM)100% (Feb 21, 6:58 PM)30.75 "Hg (Feb 21, 6:58 PM)
Low25 °F (Feb 28, 5:58 AM)36% (Feb 20, 10:58 PM)29.46 "Hg (Feb 21, 6:04 AM)
Average38 °F80%30.02 "Hg
* Reported Feb 16 2:58 AM — Mar 3 2:58 AM, Kaiserslautern, Weather by CustomWeather, © 2015

Note: Actual official high and low records may vary slightly from our data, if they occured in-between our weather recording intervals... More about our weather records

Advertising

Kaiserslautern weather history for previous 24 hours

 ConditionsComfort  
Time TempWeatherWind HumidityBarometerVisibility
2:58 AM
Tue, Mar 3
35 °FClear.8 mph76%30.16 "HgN/A
1:58 AM36 °FPassing clouds.6 mph75%30.16 "HgN/A
12:58 AM37 °FClear.7 mph71%30.14 "HgN/A
11:58 PM
Mon, Mar 2
37 °FClear.9 mph65%30.12 "HgN/A
10:58 PM37 °FClear.10 mph65%30.10 "HgN/A
9:58 PM39 °FClear.14 mph61%30.07 "HgN/A
8:58 PM38 °FClear.12 mph66%30.03 "HgN/A
7:58 PM39 °FClear.10 mph68%29.98 "HgN/A
6:58 PM40 °FPassing clouds.6 mph80%29.94 "HgN/A
5:58 PM41 °FPassing clouds.13 mph81%29.90 "HgN/A
4:58 PM39 °FPartly sunny.12 mph87%29.87 "HgN/A
3:58 PM46 °FSunny.15 mph57%29.81 "HgN/A
2:58 PM47 °FScattered clouds.17 mph46%29.81 "HgN/A
1:59 PM48 °FSunny.17 mph40%29.78 "HgN/A
12:58 PM49 °FPassing clouds.21 mph50%29.79 "HgN/A
11:58 AM46 °FPartly sunny.17 mph60%29.78 "HgN/A
10:58 AM45 °FScattered clouds.23 mph62%29.77 "HgN/A
9:58 AM44 °FPassing clouds.16 mph76%29.75 "HgN/A
8:58 AM41 °FPassing clouds.12 mph81%29.75 "HgN/A
7:58 AM43 °FPartly sunny.12 mph81%29.70 "HgN/A
6:58 AM44 °FPassing clouds.14 mph81%29.67 "HgN/A
5:58 AM45 °FPartly cloudy.12 mph80%29.65 "HgN/A
4:58 AM45 °FPartly cloudy.14 mph85%29.63 "HgN/A
4:00 AM46 °FLight rain. Passing clouds.16 mph82%29.60 "HgN/A
Weather by CustomWeather, © 2015

See weather overviewHow to use our weather pages